weather.gov     
National Weather Service

Terminal Aerodrome Forecast
NWS Homepage
This page is being discontinued on March 12, 2014.
The same data is available at this site. Please update your bookmarks.
Thank you, and we apologize for the inconvenience.
Please send an email to SR-SRH.Webmaster@noaa.gov with any concerns.


Current Version
Previous Version:    01  02  03  04  05  06  07  08  09  10  11  12  13  14  15  16  17  18  19  20  21  22  23  24  25  26  27  28  29  30  
   31  32  33  34  
[Printable]
209
FTUS41 KILN 261700
TAFCMH
TAF
KCMH 261720Z 2618/2718 22011G19KT P6SM SCT040 BKN250
     FM262100 22012G20KT P6SM VCTS BKN040CB
     FM262300 22008KT P6SM BKN040 OVC200
     FM270500 21007KT 3SM -SHRA VCTS BKN040CB OVC150
      TEMPO 2705/2709 2SM -TSRA OVC020CB
     FM271000 20007KT P6SM VCSH SCT035 OVC080
     FM271600 21011G19KT P6SM -SHRA VCTS BKN035CB=


U.S. Dept. of Commerce
NOAA National Weather Service
1325 East West Highway
Silver Spring, MD 20910
E-mail: w-nws.webmaster@noaa.gov
Page last modified: May 16, 2007
NATIONAL WEATHER SERVICE: for Safety, for Work, for Fun - FOR LIFE